Weather Underground History

Daily Summary for April 21, 2019 Units:  Metric    English   Both
« Previous Day
Next Day »
Daily Weekly Monthly Yearly Custom
  Current: High: Low: Average:
Temperature: 16.4 °C 16.4 °C 7.4 °C 10.3 °C
Dew Point: 8.2 °C 9.6 °C 4.6 °C 6.3 °C
Humidity: 58% 85% 58% 77%
Wind Speed: 0.0km/h 8.0km/h 0.0km/h 0.3km/h
Wind Gust: 8.0km/h 8.0km/h - -
WindCalm - - SSE
Pressure: 1021.6 hPa 1026.3 hPa 1021.6 hPa -
Precipitation: 0.0 mm      
Historical Graphs
 
 
Tabular Data for April 21, 2019
Time Temperature Dew Point Pressure Wind Wind Speed Wind Gust Humidity Rainfall Rate (Hourly) solar
00:04 12.6 °C 6.4 °C 1026.3 hPa Calm   1.6 km/h 66% 0.0 mm 0.00 W/m2
00:09 12.4 °C 6.2 °C 1026.3 hPa East 1.6 km/h 3.2 km/h 66% 0.0 mm 0.00 W/m2
00:14 12.3 °C 6.3 °C 1026.3 hPa East 3.2 km/h 6.4 km/h 67% 0.0 mm 0.00 W/m2
00:19 12.2 °C 6.2 °C 1026.2 hPa East 6.4 km/h 8.0 km/h 67% 0.0 mm 0.00 W/m2
00:25 12.1 °C 6.2 °C 1026.2 hPa East 8.0 km/h 8.0 km/h 67% 0.0 mm 0.00 W/m2
00:29 12.1 °C 6.3 °C 1026.2 hPa East 1.6 km/h 6.4 km/h 68% 0.0 mm 0.00 W/m2
00:34 11.9 °C 6.2 °C 1026.2 hPa Calm     68% 0.0 mm 0.00 W/m2
00:39 11.7 °C 5.9 °C 1026.2 hPa Calm     68% 0.0 mm 0.00 W/m2
00:44 11.4 °C 5.9 °C 1026.2 hPa Calm     69% 0.0 mm 0.00 W/m2
00:49 11.2 °C 5.9 °C 1026.1 hPa Calm     70% 0.0 mm 0.00 W/m2
00:54 11.0 °C 5.9 °C 1026.1 hPa Calm     71% 0.0 mm 0.00 W/m2
00:59 10.8 °C 5.8 °C 1026.0 hPa Calm     71% 0.0 mm 0.00 W/m2
01:04 10.7 °C 5.8 °C 1025.8 hPa Calm     72% 0.0 mm 0.00 W/m2
01:09 10.5 °C 5.9 °C 1025.8 hPa Calm     73% 0.0 mm 0.00 W/m2
01:14 10.3 °C 5.7 °C 1025.8 hPa Calm     73% 0.0 mm 0.00 W/m2
01:19 10.2 °C 5.8 °C 1025.7 hPa Calm     74% 0.0 mm 0.00 W/m2
01:24 10.2 °C 5.7 °C 1025.7 hPa Calm     74% 0.0 mm 0.00 W/m2
01:29 10.0 °C 5.8 °C 1025.6 hPa Calm     75% 0.0 mm 0.00 W/m2
01:34 9.8 °C 5.6 °C 1025.6 hPa Calm     75% 0.0 mm 0.00 W/m2
01:39 9.7 °C 5.7 °C 1025.6 hPa Calm     76% 0.0 mm 0.00 W/m2
01:44 9.7 °C 5.9 °C 1025.5 hPa Calm     77% 0.0 mm 0.00 W/m2
01:49 9.8 °C 5.9 °C 1025.5 hPa Calm     77% 0.0 mm 0.00 W/m2
01:54 9.8 °C 5.8 °C 1025.4 hPa Calm     76% 0.0 mm 0.00 W/m2
01:59 9.7 °C 5.7 °C 1025.3 hPa Calm     76% 0.0 mm 0.00 W/m2
02:04 9.6 °C 5.8 °C 1025.2 hPa Calm     77% 0.0 mm 0.00 W/m2
02:09 9.6 °C 5.8 °C 1025.1 hPa Calm     77% 0.0 mm 0.00 W/m2
02:14 9.7 °C 5.9 °C 1025.1 hPa Calm     77% 0.0 mm 0.00 W/m2
02:19 9.8 °C 5.8 °C 1025.1 hPa Calm     76% 0.0 mm 0.00 W/m2
02:24 9.7 °C 5.7 °C 1025.0 hPa Calm     76% 0.0 mm 0.00 W/m2
02:29 9.7 °C 5.7 °C 1025.0 hPa Calm     76% 0.0 mm 0.00 W/m2
02:34 9.7 °C 5.7 °C 1024.9 hPa Calm     76% 0.0 mm 0.00 W/m2
02:39 9.6 °C 5.6 °C 1024.9 hPa Calm     76% 0.0 mm 0.00 W/m2
02:44 9.4 °C 5.6 °C 1024.9 hPa Calm     77% 0.0 mm 0.00 W/m2
02:49 9.3 °C 5.7 °C 1024.8 hPa Calm     78% 0.0 mm 0.00 W/m2
02:54 9.3 °C 5.6 °C 1024.9 hPa Calm     78% 0.0 mm 0.00 W/m2
02:59 9.2 °C 5.8 °C 1024.8 hPa Calm     79% 0.0 mm 0.00 W/m2
03:04 9.2 °C 5.8 °C 1024.8 hPa Calm     79% 0.0 mm 0.00 W/m2
03:09 9.2 °C 5.8 °C 1024.7 hPa Calm     79% 0.0 mm 0.00 W/m2
03:14 9.2 °C 5.7 °C 1024.6 hPa Calm     79% 0.0 mm 0.00 W/m2
03:19 9.1 °C 5.7 °C 1024.5 hPa Calm     79% 0.0 mm 0.00 W/m2
03:24 9.1 °C 5.7 °C 1024.5 hPa Calm     79% 0.0 mm 0.00 W/m2
03:29 9.1 °C 5.6 °C 1024.4 hPa Calm     79% 0.0 mm 0.00 W/m2
03:34 9.0 °C 5.6 °C 1024.4 hPa Calm     79% 0.0 mm 0.00 W/m2
03:39 9.0 °C 5.6 °C 1024.3 hPa Calm     79% 0.0 mm 0.00 W/m2
03:44 8.9 °C 5.5 °C 1024.2 hPa Calm     79% 0.0 mm 0.00 W/m2
03:49 8.9 °C 5.7 °C 1024.2 hPa Calm     80% 0.0 mm 0.00 W/m2
03:54 8.8 °C 5.6 °C 1024.1 hPa Calm     80% 0.0 mm 0.00 W/m2
03:59 8.8 °C 5.6 °C 1024.1 hPa Calm     80% 0.0 mm 0.00 W/m2
04:04 8.8 °C 5.5 °C 1024.0 hPa Calm     80% 0.0 mm 0.00 W/m2
04:09 8.7 °C 5.4 °C 1024.0 hPa Calm     80% 0.0 mm 0.00 W/m2
04:14 8.6 °C 5.3 °C 1024.0 hPa Calm     80% 0.0 mm 0.00 W/m2
04:19 8.6 °C 5.5 °C 1024.0 hPa Calm     81% 0.0 mm 0.00 W/m2
04:25 8.4 °C 5.2 °C 1023.9 hPa Calm     80% 0.0 mm 0.00 W/m2
04:29 8.3 °C 5.3 °C 1023.9 hPa Calm     81% 0.0 mm 0.00 W/m2
04:34 8.2 °C 5.2 °C 1023.8 hPa Calm     81% 0.0 mm 0.00 W/m2
04:39 8.1 °C 5.1 °C 1023.8 hPa Calm     81% 0.0 mm 0.00 W/m2
04:44 8.0 °C 4.9 °C 1023.8 hPa Calm     81% 0.0 mm 0.00 W/m2
04:49 7.8 °C 4.8 °C 1023.8 hPa Calm     81% 0.0 mm 0.00 W/m2
04:54 7.7 °C 4.6 °C 1023.7 hPa Calm     81% 0.0 mm 0.00 W/m2
04:59 7.6 °C 4.7 °C 1023.6 hPa Calm     82% 0.0 mm 0.00 W/m2
05:04 7.5 °C 4.8 °C 1023.5 hPa Calm     83% 0.0 mm 0.00 W/m2
05:09 7.4 °C 4.7 °C 1023.4 hPa Calm     83% 0.0 mm 0.00 W/m2
05:14 7.6 °C 5.0 °C 1023.3 hPa Calm     84% 0.0 mm 0.00 W/m2
05:19 7.6 °C 4.8 °C 1023.3 hPa Calm     83% 0.0 mm 0.00 W/m2
05:24 7.6 °C 5.1 °C 1023.3 hPa Calm     84% 0.0 mm 0.00 W/m2
05:29 7.6 °C 4.8 °C 1023.2 hPa Calm     83% 0.0 mm 0.00 W/m2
05:34 7.6 °C 5.0 °C 1023.1 hPa Calm     84% 0.0 mm 0.00 W/m2
05:39 7.6 °C 5.0 °C 1023.1 hPa Calm     84% 0.0 mm 0.00 W/m2
05:44 7.6 °C 5.0 °C 1023.0 hPa Calm     84% 0.0 mm 0.00 W/m2
05:49 7.6 °C 5.0 °C 1023.0 hPa Calm     84% 0.0 mm 0.00 W/m2
05:54 7.6 °C 5.0 °C 1023.0 hPa Calm     84% 0.0 mm 5.00 W/m2
05:59 7.6 °C 5.0 °C 1023.0 hPa Calm     84% 0.0 mm 7.00 W/m2
06:04 7.7 °C 5.1 °C 1023.0 hPa Calm     84% 0.0 mm 9.00 W/m2
06:09 7.8 °C 5.2 °C 1022.9 hPa Calm     84% 0.0 mm 12.00 W/m2
06:14 7.8 °C 5.3 °C 1022.9 hPa Calm     84% 0.0 mm 14.00 W/m2
06:19 7.8 °C 5.3 °C 1022.9 hPa Calm     84% 0.0 mm 18.00 W/m2
06:24 7.8 °C 5.3 °C 1022.9 hPa Calm     84% 0.0 mm 19.00 W/m2
06:29 7.8 °C 5.4 °C 1022.8 hPa Calm     85% 0.0 mm 26.00 W/m2
06:34 7.9 °C 5.5 °C 1022.8 hPa Calm     85% 0.0 mm 42.00 W/m2
06:39 8.0 °C 5.6 °C 1022.7 hPa Calm     85% 0.0 mm 51.00 W/m2
06:44 8.2 °C 5.8 °C 1022.7 hPa Calm     85% 0.0 mm 62.00 W/m2
06:49 8.4 °C 6.1 °C 1022.7 hPa Calm     85% 0.0 mm 72.00 W/m2
06:54 8.7 °C 6.2 °C 1022.6 hPa Calm     84% 0.0 mm 83.00 W/m2
06:59 9.1 °C 6.5 °C 1022.5 hPa Calm     84% 0.0 mm 93.00 W/m2
07:04 9.4 °C 6.7 °C 1022.6 hPa Calm     83% 0.0 mm 107.00 W/m2
07:09 9.8 °C 7.0 °C 1022.5 hPa Calm     83% 0.0 mm 120.00 W/m2
07:14 10.3 °C 7.3 °C 1022.5 hPa Calm     82% 0.0 mm 130.00 W/m2
07:19 10.8 °C 7.7 °C 1022.4 hPa Calm     81% 0.0 mm 149.00 W/m2
07:24 11.2 °C 7.9 °C 1022.4 hPa Calm     80% 0.0 mm 167.00 W/m2
07:29 11.2 °C 7.7 °C 1022.3 hPa Calm     79% 0.0 mm 179.00 W/m2
07:34 11.2 °C 7.7 °C 1022.4 hPa Calm     79% 0.0 mm 195.00 W/m2
07:39 11.3 °C 7.9 °C 1022.4 hPa Calm     80% 0.0 mm 207.00 W/m2
07:44 11.8 °C 9.1 °C 1022.3 hPa Calm     83% 0.0 mm 223.00 W/m2
07:49 12.6 °C 9.6 °C 1022.3 hPa Calm     82% 0.0 mm 236.00 W/m2
07:54 12.6 °C 9.0 °C 1022.2 hPa Calm     79% 0.0 mm 251.00 W/m2
07:59 12.4 °C 8.7 °C 1022.2 hPa Calm     78% 0.0 mm 264.00 W/m2
08:04 12.3 °C 8.6 °C 1022.2 hPa Calm     78% 0.0 mm 278.00 W/m2
08:09 12.2 °C 8.4 °C 1022.2 hPa Calm     78% 0.0 mm 290.00 W/m2
08:14 12.2 °C 8.5 °C 1022.1 hPa Calm     78% 0.0 mm 306.00 W/m2
08:19 12.6 °C 9.1 °C 1022.1 hPa Calm     79% 0.0 mm 322.00 W/m2
08:24 13.4 °C 9.1 °C 1022.0 hPa Calm     75% 0.0 mm 338.00 W/m2
08:29 14.1 °C 8.9 °C 1022.0 hPa Calm     71% 0.0 mm 352.00 W/m2
08:34 14.6 °C 8.9 °C 1022.0 hPa Calm     69% 0.0 mm 362.00 W/m2
08:39 14.9 °C 8.8 °C 1022.0 hPa Calm     67% 0.0 mm 378.00 W/m2
08:44 15.4 °C 9.1 °C 1021.9 hPa Calm     66% 0.0 mm 392.00 W/m2
08:49 15.8 °C 9.0 °C 1021.9 hPa Calm     64% 0.0 mm 406.00 W/m2
08:54 15.9 °C 8.9 °C 1021.9 hPa Calm   3.2 km/h 63% 0.0 mm 420.00 W/m2
08:59 15.8 °C 8.3 °C 1021.8 hPa SSW 1.6 km/h 3.2 km/h 61% 0.0 mm 434.00 W/m2
09:04 15.9 °C 8.7 °C 1021.8 hPa SSW 1.6 km/h 4.8 km/h 62% 0.0 mm 448.00 W/m2
09:09 16.0 °C 8.2 °C 1021.7 hPa SSW 3.2 km/h 6.4 km/h 60% 0.0 mm 459.00 W/m2
09:14 16.1 °C 8.8 °C 1021.7 hPa SSW 6.4 km/h 6.4 km/h 62% 0.0 mm 471.00 W/m2
09:19 16.2 °C 8.6 °C 1021.7 hPa SSW 4.8 km/h 6.4 km/h 61% 0.0 mm 485.00 W/m2
09:24 16.3 °C 8.1 °C 1021.6 hPa Calm   4.8 km/h 58% 0.0 mm 497.00 W/m2
09:29 16.4 °C 8.2 °C 1021.6 hPa Calm   8.0 km/h 58% 0.0 mm 510.00 W/m2
Compliments of Weather Underground - 3 mb